Regional Weather Roundup
Issued by NWS

Home | Current Version | Previous Version | Text Only | Print | Product List | Glossary Off
Versions: 1 2 3 4 5 6 7 8 9 10 11 12 13 14 15 16 17 18 19 20 21 22 23 24 25 26 27 28 29 30 31 32 33 34 35 36 37 38 39 40 41 42 43 44 45 46 47 48 49 50

100
ASUS43 KOAX 282210
RWRNE

WEATHER ROUNDUP FOR NEBRASKA
NATIONAL WEATHER SERVICE OMAHA NE
500 PM CDT THU APR 28 2016

NOTES: SATELLITE DATA IS BEING USED TO AUGMENT CLOUD COVER ABOVE
       12000 FEET.
       "FAIR" INDICATES FEW OR NO CLOUDS BELOW 12,000 FEET WITH NO
       SIGNIFICANT WEATHER AND/OR OBSTRUCTIONS TO VISIBILITY.

  * THESE STATIONS DO NOT REPORT WEATHER SUCH AS RAIN...SNOW OR FOG.

NEZ001>004-019>022-054>056-282300-
NEBRASKA PANHANDLE

CITY           SKY/WX    TMP DP  RH WIND       PRES   REMARKS
SCOTTSBLUFF    CLOUDY    43  29  57 SE8       30.02R
ALLIANCE       CLOUDY    41  30  65 NE5       30.01S
CHADRON        LGT RAIN  43  36  76 NE10      30.03S
KIMBALL        CLOUDY    37  34  90 NE7       30.02R WCI  31
SIDNEY         CLOUDY    40  34  79 NE8       30.02S WCI  34
$$

NEZ057>060-069>072-079>082-282300-
SOUTHWEST NEBRASKA

CITY           SKY/WX    TMP DP  RH WIND       PRES   REMARKS
NORTH PLATTE   CLOUDY    47  36  65 NW5       30.02S
IMPERIAL       CLOUDY    46  36  68 VRB3      30.01R
LEXINGTON      LGT RAIN  47  39  73 N7        30.01F
MCCOOK         CLOUDY    49  38  65 NE7       30.01R
OGALLALA       LGT RAIN  44  33  65 CALM      30.01S
$$

NEZ005>010-023>029-035>040-094-282300-
NORTH CENTRAL NEBRASKA

CITY           SKY/WX    TMP DP  RH WIND       PRES   REMARKS
VALENTINE      CLOUDY    43  35  73 N12       30.04R
AINSWORTH      CLOUDY    42  37  81 N8        30.03R
BROKEN BOW     CLOUDY    47  38  71 N6        30.01F
O`NEILL        CLOUDY    43  39  85 N8        30.04R
ORD            CLOUDY    46  39  76 N8        30.02S
THEDFORD       CLOUDY    47  37  70 N9        30.02S
$$

NEZ041-046>049-061>064-073>077-083>087-282300-
SOUTH CENTRAL NEBRASKA

CITY           SKY/WX    TMP DP  RH WIND       PRES   REMARKS
GRAND ISLAND   CLOUDY    49  39  68 N8        30.03R
AURORA         CLOUDY    50  41  73 N8        30.02S
HASTINGS       CLOUDY    49  41  74 N10       30.01F
HEBRON         CLOUDY    52  43  72 N12       30.00F
HOLDREGE       LGT RAIN  48  41  77 N7        30.00S
KEARNEY *      CLOUDY    48  39  71 N10       30.02F
YORK           CLOUDY    48  41  76 N8        30.03R
$$

NEZ011>018-030>034-042>045-282300-
NORTHEAST NEBRASKA

CITY           SKY/WX    TMP DP  RH WIND       PRES   REMARKS
NORFOLK        CLOUDY    46  38  73 N12       30.01R
ALBION         CLOUDY    45  38  77 N6        30.04R
BLAIR          CLOUDY    48  42  80 NW8       30.00R
COLUMBUS *     CLOUDY    46  36  66 NW12      30.04R
FREMONT        CLOUDY    48  41  76 NW8       30.02R
TEKAMAH        CLOUDY    48  42  80 NW13      30.01R
WAYNE          CLOUDY    45  40  83 N10       30.02R
$$

NEZ050>053-065>068-078-088>093-282300-
SOUTHEAST NEBRASKA

CITY           SKY/WX    TMP DP  RH WIND       PRES   REMARKS
LINCOLN        CLOUDY    52  40  63 NW9       30.02S
OMAHA EPPLEY   CLOUDY    49  42  77 NW12      30.01R
BEATRICE       CLOUDY    52  44  74 N12       30.00S
FALLS CITY     CLOUDY    54  45  71 NW12      29.98S
NEBRASKA CITY  CLOUDY    52  43  72 NW13      30.00S
PLATTSMOUTH    CLOUDY    49  42  77 NW8       30.01R
$$

NEZ044-045-051>053-067-282300-
OMAHA AREA

CITY           SKY/WX    TMP DP  RH WIND       PRES   REMARKS
OMAHA EPPLEY   CLOUDY    49  42  77 NW12      30.01R
BLAIR          CLOUDY    48  42  80 NW8       30.00R
FREMONT        CLOUDY    48  41  76 NW8       30.02R
MILLARD        CLOUDY    50  42  73 NW8       30.01R
OFFUTT AFB     CLOUDY    50  43  77 NW10      30.00R
PLATTSMOUTH    CLOUDY    49  42  77 NW8       30.01R
WAHOO          CLOUDY    49  42  76 N12       30.02R
$$




USA.gov is the U.S. government's official web portal to all federal, state and local government web resources and services.